Regional Weather Roundup
Issued by NWS

Home | Current Version | Previous Version | Text Only | Print | Product List | Glossary On
Versions: 1 2 3 4 5 6 7 8 9 10 11 12 13 14 15 16 17 18 19 20 21 22 23 24 25 26 27 28 29 30 31 32 33 34 35 36 37 38 39 40 41 42 43 44 45 46 47 48 49 50
000
ASUS44 KFWD 281103
RWRTX
NORTH TEXAS HOURLY WEATHER ROUNDUP
NATIONAL WEATHER SERVICE FORT WORTH TX
600 AM CDT THU JUL 28 2016

NOTE: "FAIR" INDICATES FEW OR NO CLOUDS BELOW 12,000 FEET WITH NO
SIGNIFICANT WEATHER AND/OR OBSTRUCTIONS TO VISIBILITY.

TXZ118-119-281200-
DALLAS/FORT WORTH METROPLEX

CITY           SKY/WX    TMP DP  RH WIND       PRES   REMARKS
DFW AIRPORT    CLOUDY    79  71  76 S6        29.95R
DALLAS LOVE    CLOUDY    81  73  76 S3        29.96R
FTW MEACHAM    CLOUDY    79  70  74 S5        29.96R
FTW-ALLIANCE   CLOUDY    74  71  91 CALM      29.95R
FTW-NAS-JRB    CLOUDY    78  70  76 S5        29.96R
FTW-SPINKS     CLOUDY    75  71  88 S3        29.98R
ARLINGTON      CLOUDY    78  72  81 S3        29.97R
GRAND PRAIRIE  CLOUDY    78  71  77 S6        29.98R
ADDISON        CLEAR     79  72  78 S3        29.97S
MESQUITE       CLOUDY    78  72  83 CALM      29.97R
LANCASTER      CLOUDY    78  72  82 CALM      29.97R
$$

TXZ091>094-102>105-117-120-121-131>134-281200-
NORTH CENTRAL TEXAS

CITY           SKY/WX    TMP DP  RH WIND       PRES   REMARKS
SHRMAN/DENISON CLOUDY    77  76  95 CALM      29.98R
BOWIE          CLEAR     73  72  96 SE6       29.98R FOG
BRIDGEPORT     PTCLDY    72  72 100 CALM      29.99R
DECATUR        CLOUDY    74  71  90 SW5       29.98R
DENTON         CLOUDY    75  72  90 CALM      29.96R
MCKINNEY       CLOUDY    79  72  79 SW5       29.96R
GREENVILLE     CLOUDY    77  72  83 S5        29.98R
ROCKWALL       CLOUDY    78  73  83 S9        29.96R
TERRELL        CLOUDY    78  71  79 S5        29.97R
WAXAHACHIE     CLOUDY    76  74  95 S3        29.98R
CLEBURNE       CLOUDY    77  75  94 S5        29.99R
GRANBURY       CLOUDY    78  70  78 SE3       29.98R
$$

TXZ083>090-098>101-113>116-127>130-139>142-154-155-281200-
WESTERN NORTH TEXAS

CITY           SKY/WX    TMP DP  RH WIND       PRES   REMARKS
WICHITA FALLS  CLEAR     73  70  90 E3        29.96R
WF-KICKAPOO    CLEAR     76  70  83 SE3       29.97R
VERNON         PTCLDY    76  67  75 E3        29.97F
ABILENE        CLEAR     74  67  78 CALM      30.01R
ABILENE-DYESS  CLEAR     72  68  86 S5        29.99R
CISCO          CLEAR     73  70  88 S6        30.00S
GRAHAM         CLEAR     73  72  98 CALM      29.96S
MINERAL WELLS  CLEAR     72  70  93 E3        29.97R
STEPHENVILLE   CLOUDY    73  70  89 S3        30.01S
COMANCHE       CLOUDY    72  72 100 S3        30.00R
BROWNWOOD      CLOUDY    73  68  83 SE3       30.00R
COLEMAN        PTCLDY    73  70  90 S5        30.01R
$$

TXZ143>147-156>162-174-175-281200-
CENTRAL TEXAS

CITY           SKY/WX    TMP DP  RH WIND       PRES   REMARKS
WACO           CLOUDY    78  72  81 S12       29.97R
WACO-MCGREGOR  MOCLDY    76  73  91 S7        29.98R
CORSICANA      CLOUDY    79  73  82 S9        29.98R
MEXIA          CLOUDY    74  74  98 SE5       29.97S
HEARNE         CLOUDY    74  73  94 CALM      30.00R
CAMERON        CLOUDY    76  74  93 CALM      29.98R
TEMPLE         CLOUDY    75  72  90 S7        29.99R
KILLEEN        PTCLDY    74  71  91 S6        29.99R
KILLEEN-SKYLRK MOCLDY    75  72  90 S5        30.00R
FORT HOOD      PTCLDY    74  72  91 S7        29.97R
HAMILTON       CLOUDY    76  74  95 S8        30.01R
LAMPASAS       CLOUDY    76  73  93 CALM      29.99S
$$

TXZ095>097-106>112-122>126-135>138-148>153-164>167-281200-
EAST TEXAS

CITY           SKY/WX    TMP DP  RH WIND       PRES   REMARKS
PARIS          CLOUDY    75  64  69 S7        29.97S
SULPHUR SPRNGS CLOUDY    78  73  86 SW8       29.99R
MOUNT PLEASANT CLOUDY    74  74 100 S3        29.99S
GILMER         CLOUDY    75  74  96 S3        29.98R
MINEOLA        CLOUDY    77  73  88 SE3       29.99R
TYLER          CLOUDY    79  75  87 S8        29.98R
LONGVIEW       LGT RAIN  77  77 100 S6        29.97R
MARSHALL       CLOUDY    75  73  92 CALM      30.00R
ATHENS         CLOUDY    77  77 100 S3        29.97R
PALESTINE      CLOUDY    77  76  97 CALM      30.00R
JACKSONVILLE   CLOUDY    76  75  99 S3        30.03R
HENDERSON      CLOUDY    77  75  96 CALM      30.00R
CENTER         CLOUDY    81  79  95 S5        30.01R
NACOGDOCHES    CLOUDY   N/A N/A N/A S5        29.98R
LUFKIN         MOCLDY    76  75  97 SE5       29.99S FOG
$$

SUPPLEMENTAL OBSERVATIONS (CENTRAL)

CITY           SKY/WX    TMP DP  RH WIND       PRES   REMARKS
$$

SUPPLEMENTAL OBSERVATIONS (WEST)

CITY           SKY/WX    TMP DP  RH WIND       PRES   REMARKS
$$

SUPPLEMENTAL OBSERVATIONS (EAST)

CITY           SKY/WX    TMP DP  RH WIND       PRES   REMARKS
$$

SUPPLEMENTAL OBSERVATIONS ARE A COLLECTION OF AUTOMATED INSTRUMENTS
THAT ARE MAINTAINED BY A VARIETY OF FEDERAL AND STATE AGENCIES.
CERTAIN ELEMENTS...SUCH AS HUMIDITY VALUES AND SUSTAINED WIND
SPEEDS...MAY BE APPROXIMATED.




USA.gov is the U.S. government's official web portal to all federal, state and local government web resources and services.